Tracking 18852 objects as of 24-Nov-2017
HD Live streaming from Space Station
objects crossing your sky now

FENGYUN 1C DEB

Track FENGYUN 1C DEB now!
10-day predictions


NORAD ID: 30481
Int'l Code: 1999-025AGT
Perigee: 619.4 km
Apogee: 974.0 km
Inclination: 98.7 °
Period: 100.7 minutes
Semi major axis: 7167 km
RCS: 0.023 m2 (small)
Launch date: May 10, 1999
Source: People's Republic of China (PRC)
Launch site: Taiyaun Space Center, China (TSC)

Note: This is SATELLITE DEBRIS
aabbcc
Your satellite tracking list
Your tracking list is empty




NASA's NSSDC Master Catalog

Two Line Element Set (TLE):
1 30481U 99025AGT 17327.62664066 +.00000292 +00000-0 +95043-4 0  9995
2 30481 098.6573 000.6244 0247355 338.1185 140.3023 14.30661038563691
Source of the keplerian elements: AFSPC